Location: Warszawa
(52.2500°N, 21.0000°E)
Time: 19:35:17
(UTC+02:00)

Vanguard 2 - Pass Details

Date: 09 February 2023
Orbit: 553 x 2927 km, 32.9° (Epoch: 27 March)

Event Time Altitude Azimuth Distance (km) Brightness Sun altitude
Rises 21:27:05 0° 241° (WSW) 5,025 11.9 -42.8°
Reaches altitude 10° 21:30:25 10° 232° (SW) 4,346 11.4 -43.2°
Enters shadow 21:34:42 23° 215° (SW) 3,721 10.8 -43.7°
